(°C)
10°
(°C)
ЮИ
ЮИ
ЮИ
ЮИ
ЮИ
ЮЮИ
Ю
(km/h)
6-16
7-15
7-15
7-15
8-15
9-14
10-13
(mm)
0
0
0
0
0
0
0
(%)
0
0
0
0
0
0
0

Издигане на слънцето

/ -17.6°
sun-icon
UV 1
07:07
17:42
Нарастваща полу-луна (144°)
17:11
02:46

METAR за 53.5°С 50.15°И (UWWW)

Час Условия Температура/
Точка на оросяване
Вятър Видимост Времето Облаци Налягане Промяна Сурови
VFR 4°C / -2°C 190º 4kt >10km - Clouds and Visibility OK 1020 No Significant change UWWW 170100Z 19002MPS CAVOK 04/M02 Q1020 R15/CLRD60 NOSIG RMK QFE753/1004
VFR 5°C / -2°C 200º 6kt >10km - Clouds and Visibility OK 1020 No Significant change UWWW 170030Z 20003MPS CAVOK 05/M02 Q1020 R15/CLRD60 NOSIG RMK QFE753/1004
VFR 3°C / -2°C 180º 8kt >10km - Clouds and Visibility OK 1020 No Significant change UWWW 170000Z 18004MPS CAVOK 03/M02 Q1020 R15/CLRD60 NOSIG RMK QFE753/1004
VFR 5°C / -2°C 210º 8kt >10km - Clouds and Visibility OK 1020 No Significant change UWWW 162330Z 21004MPS CAVOK 05/M02 Q1020 R15/CLRD60 NOSIG RMK QFE753/1005
VFR 4°C / -2°C 200º 6kt >10km - Clouds and Visibility OK 1020 No Significant change UWWW 162300Z 20003MPS CAVOK 04/M02 Q1020 R15/CLRD60 NOSIG RMK QFE753/1005
VFR 3°C / -2°C 200º 2kt >10km - Clouds and Visibility OK 1020 No Significant change UWWW 162230Z 20001MPS CAVOK 03/M02 Q1020 R15/CLRD60 NOSIG RMK QFE754/1005
VFR 3°C / -2°C 210º 6kt >10km - Clouds and Visibility OK 1020 No Significant change UWWW 162200Z 21003MPS CAVOK 03/M02 Q1020 R15/CLRD60 NOSIG RMK QFE754/1005
VFR 3°C / -2°C 210º 6kt >10km - Clouds and Visibility OK 1020 No Significant change UWWW 162130Z 21003MPS CAVOK 03/M02 Q1020 R15/CLRD60 NOSIG RMK QFE754/1005
VFR 3°C / -2°C 220º 6kt >10km - Clouds and Visibility OK 1021 No Significant change UWWW 162100Z 22003MPS CAVOK 03/M02 Q1021 R15/CLRD60 NOSIG RMK QFE754/1005
VFR 2°C / -2°C 220º 6kt >10km - Clouds and Visibility OK 1021 No Significant change UWWW 162030Z 22003MPS CAVOK 02/M02 Q1021 R15/CLRD60 NOSIG RMK QFE754/1005
VFR 3°C / -2°C 220º 4kt >10km - Clouds and Visibility OK 1021 No Significant change UWWW 162000Z 22002MPS CAVOK 03/M02 Q1021 R15/CLRD60 NOSIG RMK QFE754/1005
VFR 3°C / -2°C 210º 6kt >10km - Clouds and Visibility OK 1021 No Significant change UWWW 161930Z 21003MPS CAVOK 03/M02 Q1021 R15/CLRD60 NOSIG RMK QFE754/1005
VFR 4°C / -2°C 190º 4kt >10km - Clouds and Visibility OK 1021 No Significant change UWWW 161900Z 19002MPS CAVOK 04/M02 Q1021 R15/CLRD60 NOSIG RMK QFE754/1005
VFR 3°C / -3°C 210º 4kt >10km - Clouds and Visibility OK 1021 No Significant change UWWW 161830Z 21002MPS CAVOK 03/M03 Q1021 R15/CLRD60 NOSIG RMK QFE754/1005
VFR 5°C / -2°C 240º 4kt >10km - Clouds and Visibility OK 1021 No Significant change UWWW 161800Z 24002MPS CAVOK 05/M02 Q1021 R15/CLRD60 NOSIG RMK QFE754/1006
VFR 3°C / -3°C 230º 4kt >10km - Clouds and Visibility OK 1021 No Significant change UWWW 161730Z 23002MPS CAVOK 03/M03 Q1021 R15/CLRD60 NOSIG RMK QFE754/1006
VFR 4°C / -3°C 210º 6kt >10km - Clouds and Visibility OK 1021 No Significant change UWWW 161700Z 21003MPS CAVOK 04/M03 Q1021 R15/CLRD60 NOSIG RMK QFE754/1006
VFR 5°C / -3°C 210º 6kt >10km - Clouds and Visibility OK 1021 No Significant change UWWW 161630Z 21003MPS CAVOK 05/M03 Q1021 R15/CLRD60 NOSIG RMK QFE754/1006
VFR 6°C / -3°C 210º 6kt >10km - Clouds and Visibility OK 1021 No Significant change UWWW 161600Z 21003MPS CAVOK 06/M03 Q1021 R15/CLRD60 NOSIG RMK QFE754/1006
VFR 6°C / -3°C 210º 6kt >10km - Clouds and Visibility OK 1021 No Significant change UWWW 161530Z 21003MPS CAVOK 06/M03 Q1021 R15/CLRD60 NOSIG RMK QFE754/1006
VFR 7°C / -3°C 220º 6kt >10km - Clouds and Visibility OK 1022 No Significant change UWWW 161500Z 22003MPS CAVOK 07/M03 Q1022 R15/CLRD60 NOSIG RMK QFE754/1006
VFR 5°C / -3°C 220º 4kt >10km - Clouds and Visibility OK 1022 No Significant change UWWW 161430Z 22002MPS CAVOK 05/M03 Q1022 R15/CLRD60 NOSIG RMK QFE754/1006
VFR 8°C / -2°C 210º 6kt >10km - Clouds and Visibility OK 1022 No Significant change UWWW 161400Z 21003MPS CAVOK 08/M02 Q1022 R15/CLRD60 NOSIG RMK QFE754/1006
VFR 8°C / -2°C 220º 6kt >10km - Clouds and Visibility OK 1022 No Significant change UWWW 161330Z 22003MPS CAVOK 08/M02 Q1022 R15/CLRD60 NOSIG RMK QFE755/1006

VFR

4°C / -2°C

[Още]
Вятър 190º 4kt
Видимост >10km
Времето -
Облаци Clouds and Visibility OK
Налягане 1020
Промяна No Significant change
Сурови UWWW 170100Z 19002MPS CAVOK 04/M02 Q1020 R15/CLRD60 NOSIG RMK QFE753/1004

VFR

5°C / -2°C

[Още]
Вятър 200º 6kt
Видимост >10km
Времето -
Облаци Clouds and Visibility OK
Налягане 1020
Промяна No Significant change
Сурови UWWW 170030Z 20003MPS CAVOK 05/M02 Q1020 R15/CLRD60 NOSIG RMK QFE753/1004

VFR

3°C / -2°C

[Още]
Вятър 180º 8kt
Видимост >10km
Времето -
Облаци Clouds and Visibility OK
Налягане 1020
Промяна No Significant change
Сурови UWWW 170000Z 18004MPS CAVOK 03/M02 Q1020 R15/CLRD60 NOSIG RMK QFE753/1004

VFR

5°C / -2°C

[Още]
Вятър 210º 8kt
Видимост >10km
Времето -
Облаци Clouds and Visibility OK
Налягане 1020
Промяна No Significant change
Сурови UWWW 162330Z 21004MPS CAVOK 05/M02 Q1020 R15/CLRD60 NOSIG RMK QFE753/1005

VFR

4°C / -2°C

[Още]
Вятър 200º 6kt
Видимост >10km
Времето -
Облаци Clouds and Visibility OK
Налягане 1020
Промяна No Significant change
Сурови UWWW 162300Z 20003MPS CAVOK 04/M02 Q1020 R15/CLRD60 NOSIG RMK QFE753/1005

VFR

3°C / -2°C

[Още]
Вятър 200º 2kt
Видимост >10km
Времето -
Облаци Clouds and Visibility OK
Налягане 1020
Промяна No Significant change
Сурови UWWW 162230Z 20001MPS CAVOK 03/M02 Q1020 R15/CLRD60 NOSIG RMK QFE754/1005

VFR

3°C / -2°C

[Още]
Вятър 210º 6kt
Видимост >10km
Времето -
Облаци Clouds and Visibility OK
Налягане 1020
Промяна No Significant change
Сурови UWWW 162200Z 21003MPS CAVOK 03/M02 Q1020 R15/CLRD60 NOSIG RMK QFE754/1005

VFR

3°C / -2°C

[Още]
Вятър 210º 6kt
Видимост >10km
Времето -
Облаци Clouds and Visibility OK
Налягане 1020
Промяна No Significant change
Сурови UWWW 162130Z 21003MPS CAVOK 03/M02 Q1020 R15/CLRD60 NOSIG RMK QFE754/1005

VFR

3°C / -2°C

[Още]
Вятър 220º 6kt
Видимост >10km
Времето -
Облаци Clouds and Visibility OK
Налягане 1021
Промяна No Significant change
Сурови UWWW 162100Z 22003MPS CAVOK 03/M02 Q1021 R15/CLRD60 NOSIG RMK QFE754/1005

VFR

2°C / -2°C

[Още]
Вятър 220º 6kt
Видимост >10km
Времето -
Облаци Clouds and Visibility OK
Налягане 1021
Промяна No Significant change
Сурови UWWW 162030Z 22003MPS CAVOK 02/M02 Q1021 R15/CLRD60 NOSIG RMK QFE754/1005

VFR

3°C / -2°C

[Още]
Вятър 220º 4kt
Видимост >10km
Времето -
Облаци Clouds and Visibility OK
Налягане 1021
Промяна No Significant change
Сурови UWWW 162000Z 22002MPS CAVOK 03/M02 Q1021 R15/CLRD60 NOSIG RMK QFE754/1005

VFR

3°C / -2°C

[Още]
Вятър 210º 6kt
Видимост >10km
Времето -
Облаци Clouds and Visibility OK
Налягане 1021
Промяна No Significant change
Сурови UWWW 161930Z 21003MPS CAVOK 03/M02 Q1021 R15/CLRD60 NOSIG RMK QFE754/1005

VFR

4°C / -2°C

[Още]
Вятър 190º 4kt
Видимост >10km
Времето -
Облаци Clouds and Visibility OK
Налягане 1021
Промяна No Significant change
Сурови UWWW 161900Z 19002MPS CAVOK 04/M02 Q1021 R15/CLRD60 NOSIG RMK QFE754/1005

VFR

3°C / -3°C

[Още]
Вятър 210º 4kt
Видимост >10km
Времето -
Облаци Clouds and Visibility OK
Налягане 1021
Промяна No Significant change
Сурови UWWW 161830Z 21002MPS CAVOK 03/M03 Q1021 R15/CLRD60 NOSIG RMK QFE754/1005

VFR

5°C / -2°C

[Още]
Вятър 240º 4kt
Видимост >10km
Времето -
Облаци Clouds and Visibility OK
Налягане 1021
Промяна No Significant change
Сурови UWWW 161800Z 24002MPS CAVOK 05/M02 Q1021 R15/CLRD60 NOSIG RMK QFE754/1006

VFR

3°C / -3°C

[Още]
Вятър 230º 4kt
Видимост >10km
Времето -
Облаци Clouds and Visibility OK
Налягане 1021
Промяна No Significant change
Сурови UWWW 161730Z 23002MPS CAVOK 03/M03 Q1021 R15/CLRD60 NOSIG RMK QFE754/1006

VFR

4°C / -3°C

[Още]
Вятър 210º 6kt
Видимост >10km
Времето -
Облаци Clouds and Visibility OK
Налягане 1021
Промяна No Significant change
Сурови UWWW 161700Z 21003MPS CAVOK 04/M03 Q1021 R15/CLRD60 NOSIG RMK QFE754/1006

VFR

5°C / -3°C

[Още]
Вятър 210º 6kt
Видимост >10km
Времето -
Облаци Clouds and Visibility OK
Налягане 1021
Промяна No Significant change
Сурови UWWW 161630Z 21003MPS CAVOK 05/M03 Q1021 R15/CLRD60 NOSIG RMK QFE754/1006

VFR

6°C / -3°C

[Още]
Вятър 210º 6kt
Видимост >10km
Времето -
Облаци Clouds and Visibility OK
Налягане 1021
Промяна No Significant change
Сурови UWWW 161600Z 21003MPS CAVOK 06/M03 Q1021 R15/CLRD60 NOSIG RMK QFE754/1006

VFR

6°C / -3°C

[Още]
Вятър 210º 6kt
Видимост >10km
Времето -
Облаци Clouds and Visibility OK
Налягане 1021
Промяна No Significant change
Сурови UWWW 161530Z 21003MPS CAVOK 06/M03 Q1021 R15/CLRD60 NOSIG RMK QFE754/1006

VFR

7°C / -3°C

[Още]
Вятър 220º 6kt
Видимост >10km
Времето -
Облаци Clouds and Visibility OK
Налягане 1022
Промяна No Significant change
Сурови UWWW 161500Z 22003MPS CAVOK 07/M03 Q1022 R15/CLRD60 NOSIG RMK QFE754/1006

VFR

5°C / -3°C

[Още]
Вятър 220º 4kt
Видимост >10km
Времето -
Облаци Clouds and Visibility OK
Налягане 1022
Промяна No Significant change
Сурови UWWW 161430Z 22002MPS CAVOK 05/M03 Q1022 R15/CLRD60 NOSIG RMK QFE754/1006

VFR

8°C / -2°C

[Още]
Вятър 210º 6kt
Видимост >10km
Времето -
Облаци Clouds and Visibility OK
Налягане 1022
Промяна No Significant change
Сурови UWWW 161400Z 21003MPS CAVOK 08/M02 Q1022 R15/CLRD60 NOSIG RMK QFE754/1006

VFR

8°C / -2°C

[Още]
Вятър 220º 6kt
Видимост >10km
Времето -
Облаци Clouds and Visibility OK
Налягане 1022
Промяна No Significant change
Сурови UWWW 161330Z 22003MPS CAVOK 08/M02 Q1022 R15/CLRD60 NOSIG RMK QFE755/1006

TAF за 53.5°С 50.15°И (UWWW)

From till


Maximum Temperature 12ºC on . Minimum Temperature 3ºC on .
From till Wind 190º 6kt. Visibility 10km or more. Broken Clouds 1600ft.
Temporarly from till Visibility 2000m. Rain Mist . Broken Clouds 700ft.
Temporarly from till Visibility 2000m. Rain Mist . Overcast 700ft.

Сурови: TAF UWWW 162250Z 1700/1724 19003MPS 9999 BKN016 TX12/1711Z TN03/1702Z TEMPO 1700/1706 2000 RA BR BKN007 TEMPO 1715/1724 2000 RA BR OVC007

Актуални сателитни и дъждовни снимки за 53.5°С 50.15°И

Маркерът за локация е поставен върху 53.5°С 50.15°И. [Още]

Сателитното изображение в реално време съчетава видимата светлина през деня с инфрачервеното лъчение през нощта. През нощта изображението не е тъмно, тъй като инфрачервеното лъчение може да открива температурни разлики. За съжаление ниските облаци и мъглата са трудни за разграничаване от температурите на земята и затова могат да бъдат почти невидими през нощта. Сателитните изображения на Meteosat за Европа се актуализират в реално време на всеки 5 минути. Изображенията GOES-16/GOES-17 (Северна и Южна Америка) и Химавари (Азия) се актуализират на всеки 10 минути.

Всички права запазени 2021 EUMETSAT / meteoblue. / Всички права запазени 2021 meteoblue

Радар и валежи в момента за 53.5°С 50.15°И

Капчица
Лек
Умерен
Тежък
Много тежък
Аве

Маркерът за локация обозначава 53.5°С 50.15°И. Анимацията показва Радара за валежи за последния час, както и прогноза за 1h. Дъждът или лекият сняг може да са невидими за радара. Интензивността на валежите е обозначена с цветни кодове, вариращи от светлосиньо до оранжево.